Location: Allentsteig
(48.6833°N, 15.3167°E)
Time: 21:46:29
(UTC+00:00)

USA 238 DEB - Pass Details

Date: 21 January 2021
Orbit: 995 x 1217 km, 63.4° (Epoch: 07 March)

Event Time Altitude Azimuth Distance (km) Brightness Sun altitude
Rises 04:50:32 0° 184° (S) 3,710 6.6 -17.9°
Reaches altitude 10° 04:53:20 10° 175° (S) 2,780 6.1 -17.5°
Maximum altitude 04:59:00 32° 115° (ESE) 1,681 5.5 -16.6°
Drops below altitude 10° 05:04:54 10° 54° (NE) 2,901 6.6 -15.6°
Sets 05:07:53 0° 46° (NE) 3,896 7.1 -15.1°
